STARLINK-5921, 55926

Orbit data source: Space-Track

STARLINK-5921, 55926 is a payload satellite owned by SpaceX/Seattle (US) in LEO that was launched on Fri, 17 Mar 2023 UTC via an FALCON 9 launch vehicle from the Air Force Western Test Range (AFWTR). Payload-class satellites include a variety of spacecraft equipped with specific instruments for various scientific and technological missions. These include communications satellites like Starlink; space stations such as the ISS; scientific satellites like the Hubble; Earth observation satellites from companies like Planet Labs, Umbra, and HawkEye 360; GPS; miniature CubeSats for education and research; and military/defense satellites.

Loading next visibility...
Identifier
55926, 2023-037N
Orbit
LEO
Country
Flag of USUS
Related business
Manufacturer
SpaceX/Seattle
Mission
Operational Commercial Communications
Bus & Motor
STARLINK, Unknown motor
Mass
305 kg wet, ~290 kg dry
Launch date (UTC)
2023-03-17 (3 years ago)
Launch vehicle
FALCON 9
Launch site
Air Force Western Test Range (AFWTR)
Object type
Payload
Rocket body
Debris
Shape & HBR
Box + 1 Pan, 10.1 m
Radar Cross Section
11.087 m², Large (>1 m²)

Expand to show TLE details & history
Last TLE update: 2 days ago

TLE from 2 days ago
0 STARLINK-5921
1 55926U 23037N   26171.34270139  .00000033  00000-0  10584-4 0  9996
2 55926  69.9998  25.7546 0002971 265.9633  94.1187 14.98329902179353
Epoch: 2026-06-20T08:13Z
TLE epoch observation values (Epoch: 2026-06-20T08:13:29.400Z)
Latitude
0.00005°
Longitude
-6.17658°
Altitude
574.629 km
Speed
7.574 km/s
True Right ascension
01h 43m 01s
True Declination
0° 00' 00"
Sunlit
Object was in daylight at epoch
Visualization orbit readout
Latitude
Unknown
Longitude
Unknown
Altitude
Unknown
Speed
Unknown
Apparent Right ascension
Unknown
Apparent Declination
Unknown
Sunlit
N/A
Visualization observer readout
Local Sidereal Time
00:51:21
Azimuth
Unknown
Elevation
Unknown
Doppler factor
Unknown
Orbital elements
Apogee altitude
572.069 km
Perigee altitude
567.94 km
Semi-major axis
6,948.141 km
Eccentricity
0.0003
Inclination
69.9998°
RAAN
25.7546°
Arg. of periapsis
265.9633°
True anomaly
94.15266°
Mean anomaly
94.1187°
Eccentric anomaly
94.13568°
Mean motion
3.74749 °/min
Orbital period
96.06 mins
BSTAR
0.000010584
Loading maneuver chart data...
Computing Atmospheric mass density...
Loading historical data...
Loading historical data...
Loading historical data...
Loading historical data...
Loading historical data...
Loading historical data...
Loading historical data...

Documentation

Showing up to 5 results
|